Time,TemperatureF,DewpointF,PressureIn,WindDirection,WindDirectionDegrees,WindSpeedMPH,WindSpeedGustMPH,Humidity,HourlyPrecipIn,Conditions,Clouds,dailyrainin,SoftwareType,DateUTC
2013-04-10 04:10:00,64.0,8.5,0.00,North,0,0.0,0.0,11,0.00,NA,NA,-99.99,wxupload 3.5,2013-04-10 08:10:00,
2013-04-10 04:12:00,64.0,8.5,0.00,North,0,0.0,0.0,11,0.00,NA,NA,-99.99,wxupload 3.5,2013-04-10 08:12:00,
2013-04-10 04:14:00,64.0,8.5,0.00,North,0,0.0,0.0,11,0.00,NA,NA,-99.99,wxupload 3.5,2013-04-10 08:14:00,
2013-04-10 04:20:00,64.0,8.5,0.00,North,0,0.0,0.0,11,0.00,NA,NA,-99.99,wxupload 3.5,2013-04-10 08:20:00,
2013-04-10 04:28:00,64.0,8.5,0.00,North,0,0.0,0.0,11,0.00,NA,NA,-99.99,wxupload 3.5,2013-04-10 08:28:00,
2013-04-10 04:34:00,63.9,8.4,0.00,North,0,0.0,0.0,11,0.00,NA,NA,-99.99,wxupload 3.5,2013-04-10 08:34:00,
2013-04-10 04:40:00,63.7,8.2,0.00,North,0,0.0,0.0,11,0.00,NA,NA,-99.99,wxupload 3.5,2013-04-10 08:40:00,
2013-04-10 04:44:00,63.5,8.1,0.00,North,0,0.0,0.0,11,0.00,NA,NA,-99.99,wxupload 3.5,2013-04-10 08:44:00,
2013-04-10 04:50:00,63.3,8.0,0.00,North,0,0.0,0.0,11,0.00,NA,NA,-99.99,wxupload 3.5,2013-04-10 08:50:00,
2013-04-10 04:56:00,63.1,7.8,0.00,North,0,0.0,0.0,11,0.00,NA,NA,-99.99,wxupload 3.5,2013-04-10 08:56:00,
2013-04-10 05:02:00,63.1,7.8,0.00,North,0,0.0,0.0,11,0.00,NA,NA,-99.99,wxupload 3.5,2013-04-10 09:02:00,
2013-04-10 05:08:00,63.0,7.7,0.00,North,0,0.0,0.0,11,0.00,NA,NA,-99.99,wxupload 3.5,2013-04-10 09:08:00,
2013-04-10 05:14:00,62.8,7.5,0.00,North,0,0.0,0.0,11,0.00,NA,NA,-99.99,wxupload 3.5,2013-04-10 09:14:00,
2013-04-10 05:20:00,62.8,7.5,0.00,North,0,0.0,0.0,11,0.00,NA,NA,-99.99,wxupload 3.5,2013-04-10 09:20:00,
2013-04-10 05:26:00,62.8,7.5,0.00,North,0,0.0,0.0,11,0.00,NA,NA,-99.99,wxupload 3.5,2013-04-10 09:26:00,
2013-04-10 05:32:00,63.0,7.7,0.00,North,0,0.0,0.0,11,0.00,NA,NA,-99.99,wxupload 3.5,2013-04-10 09:32:00,
2013-04-10 05:38:00,63.0,7.7,0.00,North,0,0.0,0.0,11,0.00,NA,NA,-99.99,wxupload 3.5,2013-04-10 09:38:00,
2013-04-10 05:44:00,63.1,7.8,0.00,North,0,0.0,0.0,11,0.00,NA,NA,-99.99,wxupload 3.5,2013-04-10 09:44:00,
2013-04-10 05:50:00,63.1,7.8,0.00,North,0,0.0,0.0,11,0.00,NA,NA,-99.99,wxupload 3.5,2013-04-10 09:50:00,
2013-04-10 05:56:00,63.1,7.8,0.00,North,0,0.0,0.0,11,0.00,NA,NA,-99.99,wxupload 3.5,2013-04-10 09:56:00,
2013-04-10 06:02:00,63.0,7.7,0.00,North,0,0.0,0.0,11,0.00,NA,NA,-99.99,wxupload 3.5,2013-04-10 10:02:00,
2013-04-10 06:08:00,62.8,7.5,0.00,North,0,0.0,0.0,11,0.00,NA,NA,-99.99,wxupload 3.5,2013-04-10 10:08:00,
2013-04-10 06:14:00,62.8,7.5,0.00,North,0,0.0,0.0,11,0.00,NA,NA,-99.99,wxupload 3.5,2013-04-10 10:14:00,
2013-04-10 06:20:00,62.8,7.5,0.00,North,0,0.0,0.0,11,0.00,NA,NA,-99.99,wxupload 3.5,2013-04-10 10:20:00,
2013-04-10 06:26:00,62.8,7.5,0.00,North,0,0.0,0.0,11,0.00,NA,NA,-99.99,wxupload 3.5,2013-04-10 10:26:00,
2013-04-10 06:32:00,62.8,7.5,0.00,North,0,0.0,0.0,11,0.00,NA,NA,-99.99,wxupload 3.5,2013-04-10 10:32:00,
2013-04-10 06:38:00,62.8,7.5,0.00,North,0,0.0,0.0,11,0.00,NA,NA,-99.99,wxupload 3.5,2013-04-10 10:38:00,
2013-04-10 06:44:00,62.8,7.5,0.00,North,0,0.0,0.0,11,0.00,NA,NA,-99.99,wxupload 3.5,2013-04-10 10:44:00,
2013-04-10 06:50:00,62.8,7.5,0.00,North,0,0.0,0.0,11,0.00,NA,NA,-99.99,wxupload 3.5,2013-04-10 10:50:00,
2013-04-10 06:56:00,62.6,7.4,0.00,North,0,0.0,0.0,11,0.00,NA,NA,-99.99,wxupload 3.5,2013-04-10 10:56:00,
2013-04-10 07:02:00,62.6,7.4,0.00,North,0,0.0,0.0,11,0.00,NA,NA,-99.99,wxupload 3.5,2013-04-10 11:02:00,
2013-04-10 07:08:00,62.6,7.4,0.00,North,0,0.0,0.0,11,0.00,NA,NA,-99.99,wxupload 3.5,2013-04-10 11:08:00,
2013-04-10 07:14:00,62.6,7.4,0.00,North,0,0.0,0.0,11,0.00,NA,NA,-99.99,wxupload 3.5,2013-04-10 11:14:00,
2013-04-10 07:20:00,62.6,7.4,0.00,North,0,0.0,0.0,11,0.00,NA,NA,-99.99,wxupload 3.5,2013-04-10 11:20:00,
2013-04-10 07:26:00,62.8,7.5,0.00,North,0,0.0,0.0,11,0.00,NA,NA,-99.99,wxupload 3.5,2013-04-10 11:26:00,
2013-04-10 07:32:00,63.0,7.7,0.00,North,0,0.0,0.0,11,0.00,NA,NA,-99.99,wxupload 3.5,2013-04-10 11:32:00,
2013-04-10 07:38:00,63.3,8.0,0.00,North,0,0.0,0.0,11,0.00,NA,NA,-99.99,wxupload 3.5,2013-04-10 11:38:00,
2013-04-10 07:44:00,63.5,8.1,0.00,North,0,0.0,0.0,11,0.00,NA,NA,-99.99,wxupload 3.5,2013-04-10 11:44:00,
2013-04-10 07:50:00,63.7,8.2,0.00,North,0,0.0,0.0,11,0.00,NA,NA,-99.99,wxupload 3.5,2013-04-10 11:50:00,
2013-04-10 07:56:00,63.9,8.4,0.00,North,0,0.0,0.0,11,0.00,NA,NA,-99.99,wxupload 3.5,2013-04-10 11:56:00,
2013-04-10 08:02:00,64.0,8.5,0.00,North,0,0.0,0.0,11,0.00,NA,NA,-99.99,wxupload 3.5,2013-04-10 12:02:00,
2013-04-10 08:08:00,64.2,8.7,0.00,North,0,0.0,0.0,11,0.00,NA,NA,-99.99,wxupload 3.5,2013-04-10 12:08:00,
2013-04-10 08:14:00,64.4,6.7,0.00,North,0,0.0,0.0,10,0.00,NA,NA,-99.99,wxupload 3.5,2013-04-10 12:14:00,
2013-04-10 08:20:00,64.8,7.0,0.00,North,0,0.0,0.0,10,0.00,NA,NA,-99.99,wxupload 3.5,2013-04-10 12:20:00,
2013-04-10 08:28:00,65.1,7.3,0.00,North,0,0.0,0.0,10,0.00,NA,NA,-99.99,wxupload 3.5,2013-04-10 12:28:00,
2013-04-10 08:34:00,65.1,7.3,0.00,North,0,0.0,0.0,10,0.00,NA,NA,-99.99,wxupload 3.5,2013-04-10 12:34:00,
2013-04-10 08:40:00,65.3,7.4,0.00,North,0,0.0,0.0,10,0.00,NA,NA,-99.99,wxupload 3.5,2013-04-10 12:40:00,
2013-04-10 08:46:00,65.5,7.5,0.00,North,0,0.0,0.0,10,0.00,NA,NA,-99.99,wxupload 3.5,2013-04-10 12:46:00,
2013-04-10 08:52:00,66.4,8.2,0.00,North,0,0.0,0.0,10,0.00,NA,NA,-99.99,wxupload 3.5,2013-04-10 12:52:00,
2013-04-10 08:58:00,66.7,8.5,0.00,North,0,0.0,0.0,10,0.00,NA,NA,-99.99,wxupload 3.5,2013-04-10 12:58:00,
2013-04-10 09:04:00,67.5,9.1,0.00,North,0,0.0,0.0,10,0.00,NA,NA,-99.99,wxupload 3.5,2013-04-10 13:04:00,
2013-04-10 09:10:00,67.3,9.0,0.00,North,0,0.0,0.0,10,0.00,NA,NA,-99.99,wxupload 3.5,2013-04-10 13:10:00,
2013-04-10 09:16:00,66.9,8.7,0.00,North,0,0.0,0.0,10,0.00,NA,NA,-99.99,wxupload 3.5,2013-04-10 13:16:00,
2013-04-10 09:22:00,66.7,8.5,0.00,North,0,0.0,0.0,10,0.00,NA,NA,-99.99,wxupload 3.5,2013-04-10 13:22:00,
2013-04-10 09:28:00,66.7,8.5,0.00,North,0,0.0,0.0,10,0.00,NA,NA,-99.99,wxupload 3.5,2013-04-10 13:28:00,
2013-04-10 09:34:00,67.3,9.0,0.00,North,0,0.0,0.0,10,0.00,NA,NA,-99.99,wxupload 3.5,2013-04-10 13:34:00,
2013-04-10 09:40:00,68.4,9.8,0.00,North,0,0.0,0.0,10,0.00,NA,NA,-99.99,wxupload 3.5,2013-04-10 13:40:00,
2013-04-10 09:46:00,69.3,10.5,0.00,North,0,0.0,0.0,10,0.00,NA,NA,-99.99,wxupload 3.5,2013-04-10 13:46:00,
2013-04-10 09:52:00,70.7,9.3,0.00,North,0,0.0,0.0,9,0.00,NA,NA,-99.99,wxupload 3.5,2013-04-10 13:52:00,
2013-04-10 09:58:00,71.6,10.0,0.00,North,0,0.0,0.0,9,0.00,NA,NA,-99.99,wxupload 3.5,2013-04-10 13:58:00,
2013-04-10 10:04:00,72.3,10.5,0.00,North,0,0.0,0.0,9,0.00,NA,NA,-99.99,wxupload 3.5,2013-04-10 14:04:00,
2013-04-10 10:10:00,73.6,8.9,0.00,North,0,0.0,0.0,8,0.00,NA,NA,-99.99,wxupload 3.5,2013-04-10 14:10:00,